Regional Weather Roundup
Issued by NWS Goodland, KS

Home | Current Version | Previous Version | Graphics & Text | Print | Product List | Glossary On
Versions: 1 2 3 4 5 6 7 8 9 10 11 12 13 14 15 16 17 18 19 20 21 22 23 24 25 26 27 28 29 30 31 32 33 34 35 36 37 38 39 40 41 42 43 44 45 46 47 48 49 50
000
ASUS43 KGLD 020759
RWRGLD

GOODLAND FORECAST AREA HOURLY WEATHER ROUNDUP
NATIONAL WEATHER SERVICE GOODLAND KS
200 AM MDT MON MAY 02 2016

...OFFICIAL OBSERVATIONS...

CITY           SKY/WX    TMP DP  RH WIND       PRES   REMARKS
GOODLAND KS    CLEAR     31  27  85 W9        30.24F
HILL CITY KS   CLOUDY    40  38  93 W5        30.23F
IMPERIAL NEB   CLEAR     36  29  75 NW9       30.24F
MCCOOK NEB     CLOUDY    38  34  85 W6        30.23F
AKRON CO       PTCLDY    32  26  78 W14       30.26F
BURLINGTON CO  CLEAR     29  25  85 W8        30.26S
LIMON CO       CLOUDY    25  23  92 NW5       30.27F
$$

...UNOFFICIAL OBSERVATIONS...

CITY           SKY/WX    TMP DP  RH WIND       PRES   REMARKS
COLBY KS       CLOUDY    39  39 100 NW6       30.25S
LENORA KS        N/A     41  32  70 MISG        N/A
NORTON KS      CLOUDY    37  34  87 W6        30.22F
SHARON SPRINGS   N/A     33  29  86 CALM        N/A
TRIBUNE KS     CLEAR     34  30  86 NW9       30.27F
KIT CARSON CO    N/A     30  27  88 MISG        N/A
YUMA CO          N/A     32  29  87 CALM        N/A
$$



USA.gov is the U.S. government's official web portal to all federal, state and local government web resources and services.